Location: Edinburgh
(55.9500°N, 3.1600°W)
Time: 02:51:31
(UTC+01:00)

AO-27 - Visible Passes

Search period start: 24 May 2024 00:00
Search period end: 03 June 2024 00:00
Orbit: 783 x 796 km, 98.8° (Epoch: 23 May)

Date Brightness Start Highest point End Pass type
(mag) Time Alt. Az. Time Alt. Az. Time Alt. Az.
24 May 9.7 22:41:39 10° SW 22:45:51 24° W 22:50:04 10° NW visible
26 May 10.2 23:24:43 10° WSW 23:26:53 12° W 23:29:03 10° WNW visible
27 May 9.9 22:53:03 10° SW 22:56:53 20° W 23:00:44 10° NW visible
29 May 10.5 23:37:30 10° W 23:37:59 10° W 23:38:28 10° WNW visible
30 May 10.1 23:04:33 10° SW 23:07:55 17° W 23:11:19 10° NW visible
31 May 9.5 22:33:36 10° SSW 22:38:00 27° W 22:42:27 10° NW visible
02 Jun 10.1 23:16:12 10° WSW 23:18:58 14° W 23:21:46 10° NW visible
